Location: Las Navas
(40.6024°N, 4.3345°W)
Time: 08:50:21
(UTC+00:00)

H-2A R/B - Pass Details

Date: 03 April 2020
Orbit: 734 x 836 km, 98.2° (Epoch: 29 May)

Event Time Altitude Azimuth Distance (km) Brightness Sun altitude
Rises 19:41:31 0° 161° (SSE) 3,326 4.9 -11.4°
Reaches altitude 10° 19:43:52 10° 160° (SSE) 2,385 4.2 -11.8°
Maximum altitude 19:49:09 78° 75° (ENE) 815 2.0 -12.7°
Drops below altitude 10° 19:54:18 10° 350° (N) 2,335 4.9 -13.7°
Sets 19:56:36 0° 349° (N) 3,251 5.7 -14.1°
